Friday, November 28, 2014
22:55 UTC
  |  Log In   |  Register Free
Airport Search:

Madison Municipal Airport
(KIMS)

Madison Municipal Airport Diagram
No Airport Diagram Available

FAA data valid effective November 13, 2014 - January 08, 2015 (unless otherwise noted).

 
 
 
 
 
 
 
 
 
 
 
 
 
 

Current Aviation Weather for Madison Municipal Airport (KIMS)

METAR data is unavailable for IMS. The nearest METAR location is at KJVY (26.9 nm SW from IMS).

The most recent METAR observation for KJVY was updated at: 2219
METAR Summary (Translated METAR)
KJVY
030145Z 34005KT 10SM CLR 00/M11 A3027 RMK LAST
(26.9 nm SW from KIMS)
KLOU
282153Z 14006KT 10SM CLR 03/M07 A3020 RMK AO2 SLP230 T00331067
(33.3 nm SW from KIMS)
TAF
No TAF information found within 50 nm of KLOU
  Airport Weather Conditions for KIMS

Current weather conditions are
not available for IMS


The nearest NOAA weather station
is at LOU, (33.3 nm SW from IMS)
  
 Current Weather at LOU
38° F
Fair
Southeast winds at 6.9 mph
LOU NOAA Radar

Pressure: 30.20 in
Humidity: 48%
Wind: Southeast at 6.9 MPH (6 KT)
Dew Point: 19.9°F
Visibility: 10.00 mi


Airport Weather Forecast for KIMS

Translated METAR and TAF for KLOU
Translated METAR for KLOU (2250 UTC 28 November 2014)
found at http://aviationweather.gov/adds/metars/
 
METAR text: KLOU 282153Z 14006KT 10SM CLR 03/M07 A3020 RMK AO2 SLP230 T00331067
Conditions at: KLOU (LOUISVILLE/BOWMN, KY, US) observed 2153 UTC 28 November 2014
Temperature: 3.3°C (38°F)
Dewpoint: -6.7°C (20°F) [RH = 48%]
Pressure (altimeter): 30.20 inches Hg (1022.8 mb)
[Sea-level pressure: 1023.0 mb]
Winds: from the SE (140 degrees) at 7 MPH (6 knots; 3.1 m/s)
Visibility: 10 or more miles (16+ km)
Ceiling: at least 12,000 feet AGL
Clouds: sky clear below 12,000 feet AGL
Weather: no significant weather observed at this time
Translated TAF for KLOU

There is no translated TAF available for this airport

Find All Airport Services Find A Hotel Find A Rental Car Find A Golf Course Find A Restaurant $100 Hamburger



FBO's on the Field
FBO Company Facility Photos Services Transportation Aviation Fuel Prices: Prices include tax
Catering Weather Repair Courtesy Rental Type 100LL JetA JetA+ MOGAS 8087
 
City of Madison

This FBO has not yet been rated
FS:Phillips 66
Last Updated: Nov-21
Login to update fuel prices
SS:
Contact City of MadisonMore FBO Information
 
Add another FBO Facility Photos Catering Weather Repair Courtesy Rental Type 100LL JetA JetA+ MOGAS 8087
Services Transportation Aviation Fuel Prices: Prices include tax


model-print
model-print
model-print
model-print